Regional Weather Roundup
Issued by NWS

Home | Current Version | Previous Version | Text Only | Print | Product List | Glossary Off
Versions: 1 2 3 4 5 6 7 8 9 10 11 12 13 14 15 16 17 18 19 20 21 22 23 24 25 26 27 28 29 30 31 32 33 34 35 36 37 38 39 40 41 42 43 44 45 46 47 48 49 50

000
ASUS45 KCYS 141810
RWRWY

WYOMING REGIONAL WEATHER ROUNDUP
NATIONAL WEATHER SERVICE CHEYENNE WY
1100 AM MST THU DEC 14 2017

NOTE:  "FAIR" INDICATES FEW OR NO CLOUDS BELOW 12,000 FEET
WITH NO SIGNIFICANT WEATHER AND/OR OBSTRUCTIONS TO VISIBILITY.

WYZ001-141900-
YELLOWSTONE NATIONAL PARK

CITY           SKY/WX    TMP DP  RH WIND       PRES   REMARKS
LK YELLOWSTONE   N/A     15  15 100 CALM      30.40F
6HR MIN TEMP:   0; 6HR MAX TEMP:  15;

W YELLOWSTONE  NOT AVBL

$$
WYZ002>013-054>058-071-098>099-141900-
NORTHERN WYOMING

CITY           SKY/WX    TMP DP  RH WIND       PRES   REMARKS
JACKSON        FAIR      27  19  72 CALM      30.42R
CODY           FAIR      35  17  47 CALM      30.32F
GREYBULL       FAIR      41  21  44 N13       30.32S
6HR MIN TEMP:  21; 6HR MAX TEMP:  41;

WORLAND        FAIR      38  22  52 W13       30.33S WCI  30
6HR MIN TEMP:  18; 6HR MAX TEMP:  38;

SHERIDAN       FAIR      39  21  48 NW22G32   30.31S WCI  29
6HR MIN TEMP:  33; 6HR MAX TEMP:  39;

BUFFALO        FAIR      37  16  42 N28G43    30.25F WCI  25
6HR MIN TEMP:  31; 6HR MAX TEMP:  37;

GILLETTE       CLOUDY    29  25  85 NW16      30.27F FOG     WCI  17
6HR MIN TEMP:  28; 6HR MAX TEMP:  33; 6HR PCP:  0.02;

HULETT         CLOUDY    30  23  74 MISG      30.25S
NEWCASTLE      LGT SNOW  28  23  80 NW20G26   30.23R WCI  15

$$
WYZ014>020-022>026-101>103-141900-
CENTRAL WYOMING

CITY           SKY/WX    TMP DP  RH WIND       PRES   REMARKS
BIG PINEY      FAIR      21  17  84 VRB3      30.34R
6HR MIN TEMP:   3; 6HR MAX TEMP:  21;

PINEDALE       CLOUDY    21  19  93 CALM      30.34F FOG
DUBOIS         FAIR      32   9  37 N12       30.27F WCI  23
LANDER         FAIR      29  19  66 CALM      30.32S
6HR MIN TEMP:  20; 6HR MAX TEMP:  29;

RIVERTON       FAIR      30  20  66 W7        30.33R WCI  23
6HR MIN TEMP:  17; 6HR MAX TEMP:  32;

CASPER         PTSUNNY   31  22  69 N7        30.30S WCI  24
6HR MIN TEMP:  24; 6HR MAX TEMP:  31;

DOUGLAS        FAIR      35  19  52 N30G44    30.26R WCI  22
6HR MIN TEMP:  30; 6HR MAX TEMP:  35; 6HR PCP: TRACE;


$$
WYZ021-027>030-104>119-141900-
SOUTHERN WYOMING

CITY           SKY/WX    TMP DP  RH WIND       PRES   REMARKS
EVANSTON       PTSUNNY   30  22  72 VRB6      30.37R WCI  24
6HR MIN TEMP:  21; 6HR MAX TEMP:  30;

FORT BRIDGER   CLEAR     32  23  69 W17G24    30.37S WCI  21
ROCK SPRINGS   CLOUDY    28  22  78 W12       30.33S WCI  18
6HR MIN TEMP:  17; 6HR MAX TEMP:  28;

DIXON          CLOUDY    31  20  65 NW5       30.36S WCI  26
RAWLINS        PTSUNNY   25  20  81 W10       30.30S WCI  15
6HR MIN TEMP:  13; 6HR MAX TEMP:  26;

SARATOGA       MOCLDY    27  19  74 W9        30.30S WCI  17
LARAMIE        CLOUDY    24  19  81 NW21      30.21S WCI   9
6HR MIN TEMP:  22; 6HR MAX TEMP:  24; 6HR PCP: TRACE;

CHEYENNE       SNOW      25  23  92 N18G32    30.20S VSB 1/2 WCI  11
6HR MIN TEMP:  25; 6HR MAX TEMP:  30; 6HR PCP:  0.01;

TORRINGTON     FAIR      37  18  46 N29G40    30.21R WCI  25
6HR MIN TEMP:  32; 6HR MAX TEMP:  38; 6HR PCP: TRACE;

PINE BLUFFS    FAIR      32  19  59 N31G41    30.20F WCI  17

$$



USA.gov is the U.S. government's official web portal to all federal, state and local government web resources and services.